Overview Statistics Trail Chart Weather Telemetry Raw packets
 

This is the latest recevied weather packets stored in our database for station/object M0HPP-13. If no packets are shown the sender has not sent any weather packets the latest 10 day(s).

<< 10 11 12 13 14 15 16 >>
Time Temp. Humidity Pressure Rain* Wind** Luminosity Snow
1788464286 12.78° C 95% 1002.3 hPa 0.25 mm - 0 W/m² -
1788463686 12.78° C 95% 1002.2 hPa 0.25 mm - 1 W/m² -
1788463086 13.33° C 95% 1002.2 hPa 0.25 mm - 2 W/m² -
1788462486 13.33° C 95% 1002.3 hPa 0.51 mm - 3 W/m² -
1788461886 13.33° C 95% 1002.4 hPa 0.25 mm - 4 W/m² -
1788461286 13.33° C 93% 1002.6 hPa 0.25 mm - 4 W/m² -
1788460686 13.89° C 91% 1002.8 hPa 0 mm - 10 W/m² -
1788460086 14.44° C 85% 1002.8 hPa 0 mm - 8 W/m² -
1788459486 14.44° C 82% 1002.8 hPa 0 mm - 5 W/m² -
1788458886 15° C 81% 1002.7 hPa 0 mm - 9 W/m² -
1788458286 15° C 82% 1002.8 hPa 0 mm - 19 W/m² -
1788457686 15° C 82% 1002.9 hPa 0 mm - 24 W/m² -
1788457086 15° C 80% 1003 hPa 0 mm - 24 W/m² -
1788456486 15.56° C 78% 1003.1 hPa 0 mm - 56 W/m² -
1788455886 15.56° C 76% 1003.1 hPa 0 mm - 29 W/m² -
1788455286 15.56° C 74% 1003.5 hPa 0 mm - 59 W/m² -
1788454686 16.11° C 73% 1003.6 hPa 0 mm - 24 W/m² -
1788454086 16.11° C 72% 1003.7 hPa 0 mm - 68 W/m² -
1788453486 16.67° C 71% 1003.7 hPa 0 mm - 113 W/m² -
1788452886 16.67° C 71% 1003.8 hPa 0 mm - 136 W/m² -
1788452286 16.11° C 70% 1003.8 hPa 0 mm - 138 W/m² -
1788451686 16.11° C 71% 1003.9 hPa 0 mm - 138 W/m² -
1788451086 16.11° C 70% 1003.9 hPa 0 mm - 136 W/m² -
1788450486 16.67° C 69% 1003.9 hPa 0 mm - 141 W/m² -
1788449886 17.22° C 64% 1003.9 hPa 0 mm - 182 W/m² -

* Rain latest hour (hover to see other rain measurements)
** Current wind speed in m/s (hover to see current wind gust speed)